Marion, VA

9:01 PM EST on November 18, 2017 (GMT -0500)
Mountain Empire

Weather History for KMKJ - November, 2011

Change the Weather History Date:

Monday, November 14, 2011

  Actual Average (KBLF) Record (KBLF)
Temperature  
Mean Temperature 54 °F -  
Max Temperature 69 °F 52 °F 81 °F (1993)
Min Temperature 39 °F 34 °F 8 °F (1986)
Degree Days  
Heating Degree Days 11    
Growing Degree Days 4 (Base 50)    
Moisture  
Dew Point 44 °F    
Average Humidity 73    
Maximum Humidity 88    
Minimum Humidity 49    
Precipitation  
Precipitation 0.00 in - - ()
Sea Level Pressure  
Sea Level Pressure 30.05 in    
Wind  
Wind Speed 5 mph (WSW)    
Max Wind Speed 25 mph    
Max Gust Speed 33 mph    
Visibility 10 miles    
Events Thunderstorm    
Averages and records for this station are not official NWS values.
T = Trace of Precipitation, MM = Missing Value Source: NWS Daily Summary

Daily Weather History Graph

Daily Weather History Graph

Search for Another Location

Airport or City:

Trip Planner

Search our weather history database for the weather conditions in past years. The results will help you decide how hot, cold, wet, or windy it might be!

Date:

Astronomy

Nov. 14, 2011 Rise Set
Actual Time 7:02 AM EST 5:16 PM EST
Civil Twilight 6:34 AM EST 5:44 PM EST
Nautical Twilight 6:03 AM EST 6:15 PM EST
Astronomical Twilight 5:32 AM EST 6:46 PM EST
Moon 8:24 PM EST (11/14) 10:17 AM EST (11/14)
Length of Visible Light 11h 09m
Length of Day
10h 14m
Waning Gibbous, 87% of the Moon is Illuminated
Nov 14
Waning Gibbous
Nov 18
Last Quarter
Nov 25
New
Dec 2
First Quarter
Dec 10
Full

Hourly Weather History & Observations

Time (EST) Temp. Dew Point Humidity Pressure Visibility Wind Dir Wind Speed Gust Speed Precip Events Conditions
12:15 AM 41.0 °F 35.6 °F 81% 30.09 in 10.0 mi Calm Calm - N/A   Clear
12:35 AM 42.8 °F 35.6 °F 76% 30.09 in 10.0 mi Calm Calm - N/A   Clear
12:55 AM 41.0 °F 33.8 °F 76% 30.10 in 10.0 mi Calm Calm - N/A   Clear
1:15 AM 41.0 °F 35.6 °F 81% 30.09 in 10.0 mi Calm Calm - N/A   Scattered Clouds
1:35 AM 41.0 °F 35.6 °F 81% 30.10 in 10.0 mi Calm Calm - N/A   Overcast
1:55 AM 41.0 °F 35.6 °F 81% 30.09 in 10.0 mi Calm Calm - N/A   Mostly Cloudy
2:15 AM 41.0 °F 35.6 °F 81% 30.09 in 10.0 mi Calm Calm - N/A   Scattered Clouds
2:35 AM 41.0 °F 35.6 °F 81% 30.09 in 10.0 mi Calm Calm - N/A   Scattered Clouds
2:55 AM 41.0 °F 35.6 °F 81% 30.09 in 10.0 mi Calm Calm - N/A   Scattered Clouds
3:15 AM 41.0 °F 35.6 °F 81% 30.09 in 10.0 mi Calm Calm - N/A   Mostly Cloudy
3:35 AM 41.0 °F 35.6 °F 81% 30.09 in 10.0 mi Calm Calm - N/A   Overcast
3:55 AM 41.0 °F 35.6 °F 81% 30.09 in 10.0 mi Calm Calm - N/A   Overcast
4:35 AM 41.0 °F 35.6 °F 81% 30.09 in 10.0 mi Calm Calm - N/A   Clear
4:55 AM 41.0 °F 35.6 °F 81% 30.09 in 10.0 mi Calm Calm - N/A   Clear
5:15 AM 39.2 °F 35.6 °F 87% 30.09 in 10.0 mi Calm Calm - N/A   Clear
5:35 AM 39.2 °F 35.6 °F 87% 30.09 in 10.0 mi Calm Calm - N/A   Clear
5:55 AM 41.0 °F 37.4 °F 87% 30.09 in 10.0 mi Calm Calm - N/A   Clear
6:15 AM 41.0 °F 37.4 °F 87% 30.09 in 10.0 mi Calm Calm - N/A   Clear
6:35 AM 42.8 °F 37.4 °F 81% 30.09 in 10.0 mi Calm Calm - N/A   Clear
7:15 AM 42.8 °F 37.4 °F 81% 30.09 in 10.0 mi Calm Calm - N/A   Clear
7:35 AM 42.8 °F 39.2 °F 87% 30.09 in 10.0 mi Calm Calm - N/A   Clear
7:55 AM 42.8 °F 39.2 °F 87% 30.09 in 10.0 mi Calm Calm - N/A   Clear
8:35 AM 50.0 °F 44.6 °F 82% 30.11 in 10.0 mi WSW 6.9 mph - N/A   Clear
8:55 AM 53.6 °F 46.4 °F 77% 30.11 in 10.0 mi SW 6.9 mph - N/A   Clear
9:15 AM 59.0 °F 48.2 °F 67% 30.10 in 10.0 mi West 8.1 mph - N/A   Mostly Cloudy
9:35 AM 60.8 °F 48.2 °F 63% 30.10 in 10.0 mi West 10.4 mph - N/A Thunderstorm Thunderstorm
9:55 AM 62.6 °F 48.2 °F 59% 30.09 in 10.0 mi West 13.8 mph - N/A   Clear
10:15 AM - - N/A% 30.09 in 10.0 mi West 18.4 mph - N/A   Clear
10:35 AM - - N/A% 30.08 in 10.0 mi West 16.1 mph 23.0 mph N/A   Clear
10:55 AM - - N/A% 30.08 in 10.0 mi West 20.7 mph 28.8 mph N/A   Clear
11:35 AM - - N/A% 30.06 in 10.0 mi West 25.3 mph 32.2 mph N/A   Scattered Clouds
11:55 AM - - N/A% 30.05 in 10.0 mi WSW 24.2 mph 31.1 mph N/A   Clear
12:15 PM - - N/A% 30.04 in 10.0 mi WSW 25.3 mph 33.4 mph N/A   Clear
12:35 PM 69.8 °F 50.0 °F 49% 30.03 in 10.0 mi WSW 19.6 mph 28.8 mph N/A   Clear
12:55 PM 69.8 °F 50.0 °F 49% 30.03 in 10.0 mi WSW 17.3 mph 29.9 mph N/A   Clear
1:15 PM - - N/A% 30.02 in 10.0 mi West 24.2 mph 28.8 mph N/A   Scattered Clouds
1:35 PM - - N/A% 30.02 in 10.0 mi WSW 19.6 mph 33.4 mph N/A   Clear
1:55 PM - - N/A% 30.01 in 10.0 mi WSW 18.4 mph 29.9 mph N/A   Clear
2:15 PM - - N/A% 30.01 in 10.0 mi West 20.7 mph 33.4 mph N/A   Mostly Cloudy
2:35 PM - - N/A% 30.01 in 10.0 mi West 16.1 mph 24.2 mph N/A   Mostly Cloudy
2:55 PM 69.8 °F 50.0 °F 49% 30.01 in 10.0 mi WSW 15.0 mph 24.2 mph N/A   Scattered Clouds
3:15 PM 69.8 °F 50.0 °F 49% 30.01 in 10.0 mi WSW 20.7 mph 25.3 mph N/A   Mostly Cloudy
3:35 PM 69.8 °F 50.0 °F 49% 30.01 in 10.0 mi WSW 16.1 mph 32.2 mph N/A   Overcast
3:55 PM 68.0 °F 50.0 °F 52% 30.01 in 10.0 mi WSW 13.8 mph 21.9 mph N/A   Overcast
4:15 PM 68.0 °F 50.0 °F 52% 30.01 in 10.0 mi WSW 11.5 mph 20.7 mph N/A   Overcast
4:35 PM 68.0 °F 50.0 °F 52% 30.02 in 10.0 mi WSW 11.5 mph 16.1 mph N/A   Overcast
4:55 PM 68.0 °F 50.0 °F 52% 30.01 in 10.0 mi WSW 13.8 mph - N/A   Overcast
5:15 PM 66.2 °F 51.8 °F 60% 30.01 in 10.0 mi WSW 12.7 mph - N/A   Overcast
5:35 PM 66.2 °F 51.8 °F 60% 30.02 in 10.0 mi WSW 10.4 mph - N/A   Overcast
5:55 PM 64.4 °F 51.8 °F 64% 30.02 in 10.0 mi WSW 9.2 mph - N/A   Overcast
6:15 PM 64.4 °F 51.8 °F 64% 30.02 in 10.0 mi WSW 10.4 mph - N/A   Mostly Cloudy
6:35 PM 62.6 °F 51.8 °F 68% 30.02 in 10.0 mi WSW 6.9 mph - N/A   Scattered Clouds
6:55 PM 62.6 °F 51.8 °F 68% 30.02 in 10.0 mi WSW 6.9 mph - N/A   Clear
7:15 PM 60.8 °F 51.8 °F 72% 30.02 in 10.0 mi West 6.9 mph - N/A   Scattered Clouds
7:35 PM 60.8 °F 51.8 °F 72% 30.01 in 10.0 mi WSW 6.9 mph - N/A   Mostly Cloudy
7:55 PM 60.8 °F 51.8 °F 72% 30.00 in 10.0 mi WSW 3.5 mph - N/A   Scattered Clouds
8:15 PM 60.8 °F 51.8 °F 72% 29.99 in 10.0 mi WNW 3.5 mph - N/A   Clear
8:35 PM 59.0 °F 51.8 °F 77% 29.98 in 10.0 mi Calm Calm - N/A   Clear
8:55 PM 55.4 °F 50.0 °F 82% 29.97 in 10.0 mi Calm Calm - N/A   Clear
9:15 PM 55.4 °F 51.8 °F 88% 29.98 in 10.0 mi Calm Calm - N/A   Mostly Cloudy
9:35 PM 55.4 °F 51.8 °F 88% 29.98 in 10.0 mi Calm Calm - N/A   Mostly Cloudy
9:55 PM 55.4 °F 51.8 °F 88% 29.98 in 10.0 mi Calm Calm - N/A   Overcast
10:15 PM 55.4 °F 51.8 °F 88% 29.98 in 10.0 mi Calm Calm - N/A   Overcast
10:35 PM 55.4 °F 51.8 °F 88% 29.98 in 10.0 mi Calm Calm - N/A   Overcast
10:55 PM 55.4 °F 50.0 °F 82% 30.00 in 10.0 mi Calm Calm - N/A   Overcast
11:15 PM 55.4 °F 51.8 °F 88% 30.00 in 10.0 mi Calm Calm - N/A   Overcast
11:35 PM 59.0 °F 51.8 °F 77% 30.00 in 10.0 mi Calm Calm - N/A   Overcast
11:55 PM 59.0 °F 51.8 °F 77% 30.00 in 10.0 mi Calm Calm - N/A   Overcast